Le nostre stazioni meteo in Italia

Pubblicità
Il mio iltempo24.it
Civitavecchia, Italia (16214): Temperatura & dewpoint: 13.05.2019 21:00:00 - 19.05.2019 21:00:00 (CEST)Civitavecchia, Italia (16214): velocità del vento: 13.05.2019 21:00:00 - 19.05.2019 21:00:00 (CEST)Civitavecchia, Italia (16214): direzione del vento: 13.05.2019 21:00:00 - 19.05.2019 21:00:00 (CEST)Civitavecchia, Italia (16214): reduced air pressure: 13.05.2019 21:00:00 - 19.05.2019 21:00:00 (CEST)Civitavecchia, Italia (16214): visibility: 13.05.2019 21:00:00 - 19.05.2019 21:00:00 (CEST)Civitavecchia, Italia (16214): ore di luce: 13.05.2019 21:00:00 - 19.05.2019 21:00:00 (CEST)
Data & Tempo tt [°C] td [°C] ff [km/h] ff [kn] dd ppp [hPa] vv [km] sd [min]
19.05.2019 21:00:00 - - - - - - - -
19.05.2019 20:00:00 16,1 12,4 26 14 SSO 1007,5 - 12
19.05.2019 19:00:00 - - - - - - - -
19.05.2019 18:00:00 - - - - - - - -
19.05.2019 17:00:00 16,0 11,7 21 11 O 1006,8 - 60
19.05.2019 16:00:00 - - - - - - - -
19.05.2019 15:00:00 - - - - - - - -
19.05.2019 14:00:00 15,8 12,8 24 13 O 1006,1 - 42
19.05.2019 13:00:00 - - - - - - - -
19.05.2019 12:00:00 - - - - - - - -
19.05.2019 11:00:00 16,4 13,8 13 7 ONO 1005,1 - 26
19.05.2019 10:00:00 - - - - - - - -
19.05.2019 09:00:00 - - - - - - - -
19.05.2019 08:00:00 - - - - - - - -
19.05.2019 07:00:00 - - - - - - - -
19.05.2019 06:00:00 - - - - - - - -
19.05.2019 05:00:00 15,7 13,3 15 8 SSE 1004,3 - 0
19.05.2019 04:00:00 - - - - - - - -
19.05.2019 03:00:00 - - - - - - - -
19.05.2019 02:00:00 16,0 13,3 18 10 S 1006,1 - 0
19.05.2019 01:00:00 - - - - - - - -
19.05.2019 00:00:00 - - - - - - - -
18.05.2019 23:00:00 16,4 13,8 11 6 SSE 1006,8 - 0
18.05.2019 22:00:00 - - - - - - - -
18.05.2019 21:00:00 - - - - - - - -
18.05.2019 20:00:00 16,4 14,0 13 7 SSO 1005,9 20 0
18.05.2019 19:00:00 - - - - - - - -
18.05.2019 18:00:00 - - - - - - - -
18.05.2019 17:00:00 17,3 14,6 15 8 S 1005,0 4,0 24
18.05.2019 16:00:00 - - - - - - - -
18.05.2019 15:00:00 - - - - - - - -
18.05.2019 14:00:00 17,4 14,7 16 9 SSE 1004,7 4,0 0
18.05.2019 13:00:00 - - - - - - - -
18.05.2019 12:00:00 - - - - - - - -
18.05.2019 11:00:00 17,4 14,4 15 8 S 1003,9 10 54
18.05.2019 10:00:00 - - - - - - - -
18.05.2019 09:00:00 - - - - - - - -
18.05.2019 08:00:00 16,4 14,0 24 13 S 1002,9 10 30
18.05.2019 07:00:00 - - - - - - - -
18.05.2019 06:00:00 - - - - - - - -
18.05.2019 05:00:00 15,6 12,6 28 15 SE 1001,9 - 0
18.05.2019 04:00:00 - - - - - - - -
18.05.2019 03:00:00 - - - - - - - -
18.05.2019 02:00:00 16,4 12,6 26 14 SE 1005,0 - 0
18.05.2019 01:00:00 - - - - - - - -
18.05.2019 00:00:00 - - - - - - - -
17.05.2019 23:00:00 15,9 12,3 15 8 E 1006,8 - 0
17.05.2019 22:00:00 - - - - - - - -
17.05.2019 21:00:00 - - - - - - - -
17.05.2019 20:00:00 16,7 12,9 15 8 SE 1007,3 20 6
17.05.2019 19:00:00 - - - - - - - -
17.05.2019 18:00:00 - - - - - - - -
17.05.2019 17:00:00 17,6 12,2 13 7 SSE 1008,6 20 60
17.05.2019 16:00:00 - - - - - - - -
17.05.2019 15:00:00 - - - - - - - -
17.05.2019 14:00:00 17,9 11,7 15 8 SSE 1009,9 20 60
17.05.2019 13:00:00 - - - - - - - -
17.05.2019 12:00:00 - - - - - - - -
17.05.2019 11:00:00 16,5 11,0 9 5 SE 1010,5 20 60
17.05.2019 10:00:00 - - - - - - - -
17.05.2019 09:00:00 - - - - - - - -
17.05.2019 08:00:00 13,9 6,9 8 4 SE 1010,4 20 36
17.05.2019 07:00:00 - - - - - - - -
17.05.2019 06:00:00 - - - - - - - -
17.05.2019 05:00:00 12,6 6,7 5 3 ESE 1010,3 - 0
17.05.2019 04:00:00 - - - - - - - -
17.05.2019 03:00:00 - - - - - - - -
17.05.2019 02:00:00 12,5 8,8 4 2 ENE 1011,3 - 0
17.05.2019 01:00:00 - - - - - - - -
17.05.2019 00:00:00 - - - - - - - -
16.05.2019 23:00:00 13,9 9,7 8 4 NNO 1012,0 - 0
16.05.2019 22:00:00 - - - - - - - -
16.05.2019 21:00:00 - - - - - - - -
16.05.2019 20:00:00 16,0 9,7 15 8 NO 1011,1 20 60
16.05.2019 19:00:00 - - - - - - - -
16.05.2019 18:00:00 - - - - - - - -
16.05.2019 17:00:00 16,7 9,4 24 13 NO 1011,1 20 60
16.05.2019 16:00:00 - - - - - - - -
16.05.2019 15:00:00 - - - - - - - -
16.05.2019 14:00:00 16,7 10,4 24 13 NO 1011,4 20 60
16.05.2019 13:00:00 - - - - - - - -
16.05.2019 12:00:00 - - - - - - - -
16.05.2019 11:00:00 15,8 7,4 8 4 OSO 1011,4 20 60
16.05.2019 10:00:00 - - - - - - - -
16.05.2019 09:00:00 - - - - - - - -
16.05.2019 08:00:00 14,8 5,4 4 2 N 1010,8 20 60
16.05.2019 07:00:00 - - - - - - - -
16.05.2019 06:00:00 - - - - - - - -
16.05.2019 05:00:00 11,6 4,8 15 8 NE 1009,1 - 0
16.05.2019 04:00:00 - - - - - - - -
16.05.2019 03:00:00 - - - - - - - -
16.05.2019 02:00:00 11,8 6,0 13 7 NE 1009,9 - 0
16.05.2019 01:00:00 - - - - - - - -
16.05.2019 00:00:00 - - - - - - - -
15.05.2019 23:00:00 11,5 7,8 9 5 N 1010,2 - 0
15.05.2019 22:00:00 - - - - - - - -
15.05.2019 21:00:00 - - - - - - - -
15.05.2019 20:00:00 11,4 8,2 8 4 ENE 1009,8 10 0
15.05.2019 19:00:00 - - - - - - - -
15.05.2019 18:00:00 - - - - - - - -
15.05.2019 17:00:00 10,8 7,0 9 5 ENE 1010,1 10 0
15.05.2019 16:00:00 - - - - - - - -
15.05.2019 15:00:00 - - - - - - - -
15.05.2019 14:00:00 9,7 6,9 15 8 N 1011,3 4,0 0
15.05.2019 13:00:00 - - - - - - - -
15.05.2019 12:00:00 - - - - - - - -
15.05.2019 11:00:00 11,7 4,8 4 2 N 1011,5 20 0
15.05.2019 10:00:00 - - - - - - - -
15.05.2019 09:00:00 - - - - - - - -
15.05.2019 08:00:00 11,3 3,4 13 7 NO 1011,3 20 0
15.05.2019 07:00:00 - - - - - - - -
15.05.2019 06:00:00 - - - - - - - -
15.05.2019 05:00:00 10,7 1,5 16 9 NE 1010,9 - 0
15.05.2019 04:00:00 - - - - - - - -
15.05.2019 03:00:00 - - - - - - - -
15.05.2019 02:00:00 11,6 1,6 16 9 NE 1011,8 - 0
15.05.2019 01:00:00 - - - - - - - -
15.05.2019 00:00:00 - - - - - - - -
14.05.2019 23:00:00 13,1 3,0 24 13 NE 1012,5 - 0
14.05.2019 22:00:00 - - - - - - - -
14.05.2019 21:00:00 - - - - - - - -
14.05.2019 20:00:00 14,5 5,3 18 10 NE 1011,9 20 0
14.05.2019 19:00:00 - - - - - - - -
14.05.2019 18:00:00 - - - - - - - -
14.05.2019 17:00:00 17,7 6,9 16 9 NNE 1011,7 20 24
14.05.2019 16:00:00 - - - - - - - -
14.05.2019 15:00:00 - - - - - - - -
14.05.2019 14:00:00 19,0 7,0 18 10 N 1011,9 20 60
14.05.2019 13:00:00 - - - - - - - -
14.05.2019 12:00:00 - - - - - - - -
14.05.2019 11:00:00 15,7 6,8 24 13 N 1012,2 20 0
14.05.2019 10:00:00 - - - - - - - -
14.05.2019 09:00:00 - - - - - - - -
14.05.2019 08:00:00 13,6 7,1 15 8 NNO 1012,6 20 0
14.05.2019 07:00:00 - - - - - - - -
14.05.2019 06:00:00 - - - - - - - -
14.05.2019 05:00:00 14,3 6,3 28 15 NNE 1011,7 - 0
14.05.2019 04:00:00 - - - - - - - -
14.05.2019 03:00:00 - - - - - - - -
14.05.2019 02:00:00 14,1 6,7 24 13 NE 1012,3 - 0
14.05.2019 01:00:00 - - - - - - - -
14.05.2019 00:00:00 - - - - - - - -
13.05.2019 23:00:00 14,9 7,0 22 12 NE 1012,8 - 0
13.05.2019 22:00:00 - - - - - - - -
13.05.2019 21:00:00 - - - - - - - -

tt = Temperatura
td = dewpoint
ff = velocità del vento
dd = direzione del vento
ppp = reduced air pressure
vv = visibility
sd = ore di luce

Stazioni seguenti

WeatherPro
AMSI
MeteoEarth